Location: La Pernelle
(49.6188°N, 1.2999°W)
Time: 08:45:27
(UTC+00:00)

Cosmos 1954 Rocket - Pass Details

Date: 12 June 2021
Orbit: 752 x 781 km, 74.1° (Epoch: 03 August)

Event Time Altitude Azimuth Distance (km) Brightness Sun altitude
Rises 20:54:28 0° 337° (NNW) 3,275 8.9 -5.8°
Reaches altitude 10° 20:56:52 10° 339° (NNW) 2,346 7.9 -6.0°
Maximum altitude 21:02:13 74° 65° (ENE) 816 4.1 -6.6°
Drops below altitude 10° 21:07:31 10° 151° (SSE) 2,331 5.9 -7.2°
Enters shadow 21:07:55 - 151° (SSE) 2,480 6.0 -7.2°
